Location: Red Shale Campground
(45.5700°N, 106.1600°W)
Time: 11:22:02
(UTC-06:00)

Daily predictions for brighter satellites

Satellite Brightness Start Highest point End
(mag) Time Altitude Azimuth Time Altitude Azimuth Time Altitude Azimuth
SPOT 5 3.7 21:29:15 10° SE 21:33:44 40° ENE 21:38:28 10° N
Cosmos 1850 Rocket 4.2 21:29:24 10° S 21:34:24 52° ESE 21:39:27 10° NNE
Cosmos 2173 Rocket 4.3 21:29:33 10° N 21:35:34 54° ENE 21:41:38 10° SSE
Helios 1A 3.9 21:31:56 10° S 21:35:57 49° W 21:40:00 10° NNW
Cosmos 614 Rocket 4.0 21:31:15 10° SSW 21:36:27 77° ESE 21:41:40 10° NNE
Cosmos 2237 Rocket 3.4 21:32:05 10° NW 21:37:17 39° WSW 21:42:27 10° S
Abrixas rocket 3.0 21:39:39 10° WNW 21:42:50 51° N 21:46:02 10° E
Cosmos 1603 4.4 21:38:24 10° NNW 21:43:47 41° NE 21:49:05 10° SE
USA 234 3.6 21:39:33 10° ENE 21:45:42 42° SE 21:51:50 10° SSW
H-2A R/B 2.9 21:41:51 10° SE 21:46:45 39° ENE 21:51:47 10° N
ERS-1 Rocket 3.0 21:43:07 10° SSE 21:48:09 87° WSW 21:53:14 10° NNW
Cosmos 1908 3.2 21:47:02 10° N 21:50:56 75° E 21:54:47 10° SSE
Cosmos 1818 3.7 21:45:58 10° NW 21:51:26 77° WSW 21:56:50 10° SSE
Lacrosse 4 Rocket 3.3 21:47:47 10° WSW 21:51:45 37° NW 21:55:51 10° NNE
Cosmos 1674 2.7 21:49:11 10° S 21:52:54 60° E 21:56:37 10° NNE
Cosmos 2227 Rocket 3.4 21:49:00 10° SW 21:54:26 47° WNW 21:59:54 10° NNE
Cosmos 1802 Rocket 4.1 21:48:23 10° N 21:54:30 64° E 22:00:35 10° SSE
Cosmos 1184 Rocket 4.0 21:51:17 10° SSW 21:54:32 46° WNW 21:57:49 10° N
Cosmos 1741 Rocket 4.0 21:53:23 10° SSW 21:58:42 81° ESE 22:04:02 10° NNE
Cosmos 1943 4.4 21:55:53 10° N 22:00:52 31° NE 22:05:51 10° ESE
SL-16 R/B 2.7 21:55:22 10° NNW 22:00:56 59° WSW 22:06:28 10° S
KORONAS-FOTON 4.0 21:59:55 10° S 22:03:37 53° E 22:07:20 10° NNE
Cosmos 1408 Rocket 3.7 22:01:13 10° S 22:05:23 52° E 22:09:36 10° NNE
Tiangong 1 1.2 22:02:49 10° WSW 22:05:28 40° S 22:07:55 11° E
ARGOS 3.2 22:02:07 10° SSE 22:07:33 86° ENE 22:13:00 10° NNW
Cosmos 1356 Rocket 3.4 22:05:26 10° S 22:09:40 84° E 22:14:00 10° NNE
MetOp-A 4.4 22:04:27 10° S 22:09:48 72° WSW 22:15:10 10° NNW
Cosmos 1076 Rocket 3.6 22:06:18 10° S 22:10:41 87° W 22:15:04 10° N
Terra 2.7 22:15:15 14° SE 22:18:51 36° ENE 22:23:12 10° N
Cosmos 2221 3.8 22:16:01 10° NNW 22:20:07 40° W 22:24:13 10° SSW
ERBS 3.2 22:22:04 10° NW 22:25:20 43° NE 22:27:57 14° ESE
Cosmos 2016 Rocket 4.0 22:19:58 10° N 22:26:18 89° W 22:32:11 12° S
Cosmos 332 Rocket 3.8 22:24:42 10° NNW 22:29:37 75° ENE 22:33:15 18° SSE
RESURS DK-1 2.3 22:28:16 10° NNW 22:32:28 86° ENE 22:35:16 20° SSE
Cosmos 2151 4.0 22:30:35 19° SE 22:32:52 30° E 22:36:39 10° NNE
Cosmos 1242 Rocket 4.0 22:29:34 10° NNW 22:33:00 35° W 22:36:24 10° SSW
Cosmos 1814 Rocket 4.1 22:29:11 10° NNW 22:34:33 72° ENE 22:38:24 19° SSE
CARTOSAT-1 4.0 22:32:40 19° SE 22:35:30 50° ENE 22:39:41 10° N
BREEZE-M DEB (TANK) 3.0 22:34:45 10° W 22:37:03 51° N 22:42:59 10° ENE
Cosmos 2227 4.2 22:31:38 10° SSW 22:37:21 77° ESE 22:43:04 10° NNE
SL-08 RB Rocket 4.2 22:34:11 12° S 22:38:15 58° W 22:42:49 10° NNW
Cosmos 1766 Rocket 4.0 22:36:38 10° SSW 22:40:54 62° W 22:45:14 10° N
Cosmos 1486 Rocket 4.5 22:37:19 16° SSE 22:41:07 43° ESE 22:46:06 10° NE
SPOT 1/Viking Rocket 3.7 22:37:14 14° S 22:41:35 70° WSW 22:46:45 10° NNW
USA 245 4.4 22:40:57 12° SSW 22:43:43 36° W 22:47:30 10° NNW
Meteor 2-2 Rocket 4.4 22:39:32 10° NNW 22:45:19 81° W 22:50:03 16° S
Cosmos 1328 Rocket 3.5 22:42:34 10° N 22:46:57 83° W 22:49:54 20° S
Cosmos 841 Rocket 3.8 22:42:46 10° NNW 22:47:58 59° ENE 22:51:18 22° SE
Cosmos 2228 Rocket 3.1 22:44:13 10° N 22:48:51 87° WSW 22:51:58 20° S
SL-14 R/B 3.2 22:46:09 17° S 22:49:10 85° E 22:53:08 10° N
Cosmos 1515 Rocket 3.5 22:46:13 10° N 22:50:34 79° E 22:53:11 23° SSE
Cosmos 1763 Rocket 3.4 22:46:16 10° NNW 22:51:26 79° ENE 22:54:37 23° SSE
Cosmos 2233 Rocket 4.1 22:45:31 10° N 22:51:44 65° E 22:55:56 21° SSE
Cosmos 1328 3.8 22:51:25 17° S 22:54:29 85° W 22:58:33 10° N
H-2A R/B 2.1 22:54:27 25° SSE 22:56:53 65° ENE 23:01:06 10° N
Cosmos 1743 Rocket 3.5 22:54:02 17° S 22:57:17 90° W 23:01:39 10° N
Cosmos 1300 3.2 22:53:51 10° NNW 22:57:38 56° W 23:00:02 21° SSW
EO 1 Delta rocket 4.4 22:54:27 14° S 22:58:20 53° W 23:02:53 10° NNW
Cosmos 1151 Rocket 3.0 22:54:55 10° N 22:59:20 75° E 23:01:42 27° SSE
Cosmos 1867 4.3 22:55:23 10° SW 23:00:44 56° NW 23:06:08 10° NNE
Cosmos 1626 2.7 23:00:20 30° SE 23:01:35 41° E 23:05:07 10° NNE
Cosmos 1726 3.5 23:02:13 10° NNW 23:05:33 33° W 23:08:04 15° SSW
Cosmos 2263 Rocket 2.4 23:03:21 22° S 23:06:43 48° ESE 23:12:04 10° NE
SL-19 R/B 4.2 23:04:59 10° NNE 23:10:17 67° ESE 23:13:56 22° S
IGS 5A 3.6 23:10:27 27° S 23:12:38 70° WSW 23:16:48 10° NNW
Lacrosse 5 2.3 23:10:11 10° WNW 23:15:02 47° SW 23:17:19 28° S
ATLAS 5 CENTAUR R/B 3.7 23:11:24 10° WSW 23:15:46 34° NW 23:20:33 10° NNE
Abrixas rocket 2.1 23:16:27 10° WNW 23:19:40 62° SSW 23:20:10 52° SSE
Cosmos 371 Rocket 4.0 23:15:49 10° NNW 23:20:25 46° WSW 23:23:02 23° SSW
Meteor 2-12 Rocket 4.4 23:14:52 10° N 23:20:59 90° W 23:24:38 26° S
PSLV R/B 2.8 23:21:17 62° S 23:21:41 87° WSW 23:24:34 10° NNW
Cosmos 1869 4.4 23:21:10 10° N 23:24:45 32° ENE 23:25:53 27° ESE
H-2A R/B 3.5 23:22:02 12° SSW 23:26:13 31° W 23:31:01 10° NNW
Cosmos 1503 Rocket 4.1 23:24:16 29° S 23:26:42 55° ESE 23:31:45 10° NNE
USA 234 3.6 23:22:26 10° NE 23:28:57 68° NNW 23:35:25 10° WSW
CZ-4C R/B 3.6 23:28:58 36° SE 23:30:35 68° ENE 23:34:58 10° N
Cosmos 1455 2.1 23:27:46 10° N 23:31:40 78° E 23:32:48 44° SSE
Cosmos 2285 Rocket 4.0 23:25:36 10° NNW 23:31:59 80° ENE 23:35:29 29° SSE
SL-19 R/B 3.5 23:32:31 63° E 23:32:41 65° ENE 23:35:33 10° N
DELTA 2 DEB (DPAF) 4.1 23:34:15 36° SSE 23:36:03 85° ENE 23:40:32 10° NNW
Cosmos 2034 Rocket 4.4 23:34:05 10° N 23:40:18 52° ENE 23:43:29 28° SE
Tiangong 1 3.0 23:38:12 10° W 23:39:04 17° WSW 23:39:04 17° WSW
Cosmos 1844 Rocket 4.1 23:40:45 20° ESE 23:41:36 21° E 23:45:38 10° NE
deb Chang Zheng 4 3.8 23:37:36 10° N 23:41:56 67° WNW 23:44:23 25° SSW
Cosmos 1943 3.8 23:39:43 10° NW 23:45:07 47° WSW 23:47:48 27° SSW
ALOS 2 3.8 23:43:56 24° ESE 23:45:36 31° ENE 23:49:29 10° N
Sich 1 3.5 23:44:49 38° SE 23:45:46 44° E 23:49:51 10° NNE
CZ-2C R/B 3.9 23:44:03 26° SE 23:47:00 47° ENE 23:52:25 10° N
CZ-4B R/B 3.6 23:44:53 10° NNE 23:50:11 83° WNW 23:53:06 27° SSW
CZ-4 R/B 4.2 23:45:53 10° N 23:50:44 65° WNW 23:53:35 24° SSW
Cosmos 1707 Rocket 3.6 23:47:57 10° N 23:52:27 77° E 23:53:51 44° SSE
Cosmos 1703 4.1 23:51:37 26° SW 23:53:28 47° WNW 23:57:20 10° N
Cosmos 2058 4.0 23:51:16 20° SW 23:53:42 40° WNW 23:57:42 10° N
Cosmos 968 Rocket 4.3 23:53:40 30° SE 23:54:48 33° E 23:59:30 10° NE
